Crosby, ND

7:02 PM CST on December 06, 2019 (GMT -0600)
Crosby

Weather History for KD50 - November, 2019

Change the Weather History Date:

Monday, November 18, 2019

  Actual Average (KISN) Record (KISN)
Temperature  
Mean Temperature 44 °F -  
Max Temperature 50 °F 34 °F 62 °F (1908)
Min Temperature 37 °F 16 °F -17 °F (1986)
Degree Days  
Heating Degree Days 22    
Moisture  
Dew Point 36 °F    
Average Humidity 78    
Maximum Humidity 100    
Minimum Humidity 46    
Precipitation  
Precipitation 0.00 in - - ()
Sea Level Pressure  
Sea Level Pressure 29.67 in    
Wind  
Wind Speed 14 mph (WNW)    
Max Wind Speed 31 mph    
Max Gust Speed 41 mph    
Visibility 10 miles    
Events Rain    
Averages and records for this station are not official NWS values.
T = Trace of Precipitation, MM = Missing Value Source: NWS Daily Summary

Daily Weather History Graph

Daily Weather History Graph

Search for Another Location

Airport or City:

Astronomy

Nov. 18, 2019 Rise Set
Actual Time 8:06 AM CST 5:09 PM CST
Civil Twilight 7:31 AM CST 5:44 PM CST
Nautical Twilight 6:53 AM CST 6:22 PM CST
Astronomical Twilight 6:15 AM CST 7:00 PM CST
Moon 10:56 PM CST (11/18) 1:42 PM CST (11/18)
Length of Visible Light 10h 12m
Length of Day
9h 02m
Waning Gibbous, 63% of the Moon is Illuminated
Nov 18
Waning Gibbous
Nov 19
Last Quarter
Nov 26
New
Dec 4
First Quarter
Dec 11
Full

Hourly Weather History & Observations

Time (CST) Temp. Windchill Dew Point Humidity Pressure Visibility Wind Dir Wind Speed Gust Speed Precip Events Conditions
12:35 AM 39.2 °F 33.6 °F 37.4 °F 93% 29.56 in 10.0 mi SSW 8.1 mph - N/A   Overcast
12:55 AM 39.2 °F 32.5 °F 37.4 °F 93% 29.56 in 10.0 mi SSW 10.4 mph - N/A   Overcast
1:15 AM 39.2 °F 33.0 °F 39.2 °F 100% 29.56 in 9.0 mi SW 9.2 mph - N/A   Mostly Cloudy
1:35 AM 39.2 °F 32.5 °F 39.2 °F 100% 29.55 in 10.0 mi SW 10.4 mph - N/A   Overcast
1:55 AM 41.0 °F 34.7 °F 41.0 °F 100% 29.55 in 10.0 mi WSW 10.4 mph - N/A   Overcast
2:15 AM 41.0 °F 35.2 °F 41.0 °F 100% 29.57 in 10.0 mi WSW 9.2 mph - N/A   Overcast
2:35 AM 42.8 °F 36.2 °F 39.2 °F 87% 29.57 in 10.0 mi West 12.7 mph - N/A   Overcast
2:55 AM 41.0 °F 35.2 °F 39.2 °F 93% 29.58 in 10.0 mi WSW 9.2 mph - N/A   Mostly Cloudy
3:15 AM 41.0 °F 35.2 °F 39.2 °F 93% 29.59 in 10.0 mi West 9.2 mph - N/A   Overcast
3:35 AM 42.8 °F 37.0 °F 39.2 °F 87% 29.58 in 10.0 mi West 10.4 mph 16.1 mph N/A   Overcast
3:55 AM 41.0 °F 34.7 °F 37.4 °F 87% 29.58 in 10.0 mi West 10.4 mph - N/A   Overcast
4:15 AM 39.2 °F 32.5 °F 37.4 °F 93% 29.58 in 10.0 mi West 10.4 mph - N/A   Overcast
4:35 AM 39.2 °F 33.0 °F 37.4 °F 93% 29.58 in 10.0 mi West 9.2 mph - N/A   Mostly Cloudy
4:55 AM 41.0 °F 34.7 °F 39.2 °F 93% 29.58 in 10.0 mi West 10.4 mph - N/A   Mostly Cloudy
5:15 AM 41.0 °F 34.7 °F 37.4 °F 87% 29.59 in 10.0 mi WNW 10.4 mph - N/A   Overcast
5:35 AM 41.0 °F 35.2 °F 37.4 °F 87% 29.59 in 10.0 mi West 9.2 mph - N/A   Mostly Cloudy
5:55 AM 42.8 °F 37.0 °F 37.4 °F 81% 29.60 in 10.0 mi West 10.4 mph - N/A   Overcast
6:15 AM 42.8 °F 36.6 °F 37.4 °F 81% 29.60 in 10.0 mi WNW 11.5 mph - N/A   Overcast
6:35 AM 42.8 °F 36.6 °F 39.2 °F 87% 29.61 in 10.0 mi West 11.5 mph - N/A   Mostly Cloudy
6:55 AM 41.0 °F 33.9 °F 39.2 °F 93% 29.62 in 10.0 mi West 12.7 mph - N/A   Overcast
7:15 AM 41.0 °F 33.1 °F 39.2 °F 93% 29.64 in 10.0 mi West 15.0 mph 23.0 mph N/A   Overcast
7:35 AM 42.8 °F 34.8 °F 41.0 °F 93% 29.65 in 10.0 mi WNW 17.3 mph - N/A   Overcast
8:15 AM - - - N/A% 29.67 in 10.0 mi WNW 18.4 mph 25.3 mph N/A   Overcast
8:35 AM 41.0 °F 32.8 °F 41.0 °F 100% 29.67 in 10.0 mi NW 16.1 mph 24.2 mph N/A   Overcast
8:55 AM 41.0 °F 35.2 °F 41.0 °F 100% 29.65 in 5.0 mi WNW 9.2 mph 16.1 mph N/A Rain Light Rain
9:15 AM 39.2 °F 32.5 °F 39.2 °F 100% 29.67 in 10.0 mi WNW 10.4 mph - N/A   Mostly Cloudy
9:35 AM 41.0 °F 34.7 °F 41.0 °F 100% 29.67 in 10.0 mi West 10.4 mph - N/A   Clear
9:55 AM 41.0 °F 34.7 °F 41.0 °F 100% 29.68 in 10.0 mi WNW 10.4 mph 16.1 mph N/A   Clear
10:15 AM 44.6 °F 37.8 °F 42.8 °F 93% 29.69 in 10.0 mi West 15.0 mph - N/A   Clear
10:35 AM 42.8 °F 35.8 °F 41.0 °F 93% 29.70 in 10.0 mi West 13.8 mph 20.7 mph N/A   Clear
10:55 AM 44.6 °F 37.4 °F 41.0 °F 87% 29.69 in 10.0 mi West 16.1 mph - N/A   Clear
11:15 AM 44.6 °F 35.9 °F 41.0 °F 87% 29.70 in 10.0 mi West 23.0 mph - N/A   Clear
11:35 AM 46.4 °F 38.5 °F 41.0 °F 81% 29.70 in 10.0 mi West 21.9 mph 27.6 mph N/A   Clear
11:55 AM 46.4 °F 39.5 °F 41.0 °F 81% 29.70 in 10.0 mi West 17.3 mph 25.3 mph N/A   Clear
12:15 PM 48.2 °F - 39.2 °F 71% 29.69 in 10.0 mi West 19.6 mph 27.6 mph N/A   Partly Cloudy
12:35 PM 50.0 °F - 37.4 °F 62% 29.69 in 10.0 mi WNW 26.5 mph 33.4 mph N/A   Clear
12:55 PM 50.0 °F - 33.8 °F 54% 29.69 in 10.0 mi WNW 23.0 mph 33.4 mph N/A   Clear
1:15 PM 50.0 °F - 32.0 °F 50% 29.68 in 10.0 mi WNW 28.8 mph 35.7 mph N/A   Clear
1:35 PM 50.0 °F - 32.0 °F 50% 29.68 in 10.0 mi WNW 24.2 mph 35.7 mph N/A   Clear
1:55 PM 50.0 °F - 30.2 °F 47% 29.68 in 10.0 mi WNW 31.1 mph 38.0 mph N/A   Clear
2:15 PM 50.0 °F - 30.2 °F 47% 29.68 in 10.0 mi NW 31.1 mph 38.0 mph N/A   Clear
2:35 PM 50.0 °F - 30.2 °F 47% 29.68 in 10.0 mi WNW 29.9 mph 41.4 mph N/A   Clear
2:55 PM 48.2 °F - 28.4 °F 46% 29.68 in 10.0 mi WNW 25.3 mph 36.8 mph N/A   Clear
3:15 PM 48.2 °F - 30.2 °F 50% 29.68 in 10.0 mi WNW 26.5 mph - N/A   Clear
3:35 PM 48.2 °F - 30.2 °F 50% 29.68 in 10.0 mi WNW 19.6 mph 32.2 mph N/A   Clear
3:55 PM 46.4 °F 38.7 °F 30.2 °F 53% 29.69 in 10.0 mi NW 20.7 mph 29.9 mph N/A   Clear
4:35 PM 44.6 °F 37.4 °F 30.2 °F 57% 29.69 in 10.0 mi WNW 16.1 mph 25.3 mph N/A   Clear
4:55 PM 42.8 °F 34.8 °F 30.2 °F 61% 29.69 in 10.0 mi WNW 17.3 mph 25.3 mph N/A   Clear
5:15 PM 41.0 °F 34.7 °F 30.2 °F 65% 29.70 in 10.0 mi WNW 10.4 mph 20.7 mph N/A   Clear
5:35 PM 39.2 °F 32.0 °F 30.2 °F 70% 29.71 in 10.0 mi WNW 11.5 mph - N/A   Clear
5:55 PM 39.2 °F 30.8 °F 30.2 °F 70% 29.72 in 10.0 mi WNW 15.0 mph - N/A   Clear
6:15 PM 37.4 °F 28.9 °F 28.4 °F 70% 29.72 in 10.0 mi WNW 13.8 mph - N/A   Partly Cloudy
6:35 PM 37.4 °F 28.9 °F 30.2 °F 75% 29.73 in 10.0 mi WNW 13.8 mph - N/A   Mostly Cloudy
6:55 PM 41.0 °F 31.9 °F 30.2 °F 65% 29.72 in 10.0 mi NW 19.6 mph 29.9 mph N/A   Overcast
7:15 PM 41.0 °F 32.2 °F 30.2 °F 65% 29.73 in 10.0 mi WNW 18.4 mph 25.3 mph N/A   Overcast
7:35 PM 41.0 °F 32.5 °F 32.0 °F 70% 29.74 in 10.0 mi NW 17.3 mph - N/A   Overcast
7:55 PM 41.0 °F 32.2 °F 32.0 °F 70% 29.74 in 10.0 mi NW 18.4 mph - N/A   Overcast
8:15 PM 41.0 °F 31.4 °F 32.0 °F 70% 29.75 in 10.0 mi NW 21.9 mph - N/A   Overcast
8:35 PM 41.0 °F 30.2 °F 32.0 °F 70% 29.75 in 10.0 mi NW 27.6 mph 35.7 mph N/A   Overcast
8:55 PM 41.0 °F 31.6 °F 32.0 °F 70% 29.75 in 10.0 mi NW 20.7 mph - N/A   Overcast
9:15 PM 39.2 °F 30.2 °F 32.0 °F 75% 29.76 in 10.0 mi NW 17.3 mph 29.9 mph N/A   Overcast
9:35 PM 37.4 °F 28.9 °F 32.0 °F 81% 29.76 in 10.0 mi WNW 13.8 mph - N/A   Overcast
9:55 PM 39.2 °F 30.5 °F 33.8 °F 81% 29.77 in 10.0 mi WNW 16.1 mph - N/A   Overcast
10:15 PM 39.2 °F 30.8 °F 33.8 °F 81% 29.77 in 10.0 mi WNW 15.0 mph - N/A   Overcast
10:35 PM 39.2 °F 30.5 °F 33.8 °F 81% 29.78 in 10.0 mi WNW 16.1 mph - N/A   Overcast
10:55 PM 39.2 °F 31.6 °F 33.8 °F 81% 29.77 in 10.0 mi WNW 12.7 mph - N/A   Overcast
11:15 PM 39.2 °F 32.0 °F 33.8 °F 81% 29.77 in 10.0 mi WNW 11.5 mph - N/A   Overcast
11:35 PM 39.2 °F 31.2 °F 33.8 °F 81% 29.78 in 10.0 mi NW 13.8 mph - N/A   Overcast
11:55 PM 39.2 °F 30.8 °F 33.8 °F 81% 29.78 in 10.0 mi NW 15.0 mph 23.0 mph N/A   Overcast